[[{"header":{"parameterUnit":"m.s-1","parameterCategory":1,"la1":30.2991,"la2":30.254,"lo1":-89.0895,"lo2":-89.0444,"dy":0.0017,"dx":0.0017,"nx":28,"ny":28,"refTime":"2024-12-25T09:00:00:Z","depth":0,"parameterNumber":2,"parameterNumberName":"U-component_of_WINDS"},"data":[0,0,0,0,0,0,0,0,0,0,0,0,0,0,0,0,0,0,0,0,0,0,0,0,0,0,0,0,0,0,0,0,0,0,0,0,0,0,0,0,0,0,0,0,0,0,0,0,0,0,0,0,0,0,0,0,0,0,-5.8452,-5.8453,0,-5.847,-5.8471,-5.8471,-5.8353,-5.835,-5.8346,-5.8343,-5.8362,-5.8366,-5.8369,0,0,0,0,0,0,0,0,0,0,0,0,0,-5.8318,-5.8321,-5.8452,-5.8453,-5.8453,-5.847,-5.8471,-5.8471,-5.8353,-5.8349,-5.8345,-5.8342,-5.8361,-5.8365,-5.8369,0,0,0,0,0,0,0,0,0,0,0,0,0,-5.836,-5.8322,-5.8452,-5.8396,-5.8391,-5.847,-5.8471,-5.8471,-5.8354,-5.8349,-5.8344,-5.834,-5.8359,-5.8365,-5.837,-5.8504,0,0,-5.8387,-5.8389,0,0,0,0,0,0,0,0,-5.8358,-5.8365,-5.8404,-5.84,-5.8395,-5.8404,-5.843,-5.8482,-5.8356,-5.8368,-5.8343,-5.8337,-5.838,-5.8384,-5.8398,-5.8504,-5.8505,-5.8387,-5.839,-5.8393,-5.8394,0,0,0,0,0,0,0,-5.8355,-5.8364,-5.8459,-5.8405,-5.8399,-5.8371,-5.8371,-5.8439,-5.8402,-5.8367,-5.8358,-5.8362,-5.8377,-5.8393,-5.8397,-5.8506,-5.8387,-5.8392,-5.8395,-5.8397,-5.8724,-5.8729,0,0,0,0,0,0,-5.8359,-5.8362,-5.8459,-5.846,-5.8364,-5.8377,-5.8378,-5.8406,-5.8401,-5.8395,-5.8366,-5.8357,-5.8386,-5.8391,-5.8398,-5.8554,-5.8393,-5.8398,-5.8401,-5.8719,-5.8725,-5.8731,0,0,0,0,0,0,-5.8357,-5.8369,-5.8458,-5.8409,-5.8418,-5.8385,-5.8418,-5.8409,-5.8425,-5.8401,-5.8394,-5.839,-5.8382,-5.839,-5.8478,-5.8553,-5.84,-5.8405,-5.8712,-5.8721,-5.8728,-5.8867,0,0,0,0,0,0,-5.8354,-5.8369,-5.8419,-5.8411,-5.8421,-5.8538,-5.8423,-5.8413,-5.8435,-5.8422,-5.8421,-5.8416,-5.8379,-5.8471,-5.8484,-5.8557,-5.8409,-5.8705,-5.8716,-5.8725,-5.8855,-5.8879,-5.8899,0,0,0,0,0,-5.8349,-5.8457,-5.8422,-5.8434,-5.8482,-5.8543,-5.8548,-5.8504,-5.8442,-5.8492,-5.8476,-5.8416,-5.8543,-5.8481,-5.8494,-5.8571,-5.87,-5.8713,-5.8725,-5.8846,-5.8874,-5.8898,0,0,0,0,0,0,-5.8474,-5.8455,-5.8416,-5.8524,-5.8536,-5.8523,-5.8584,-5.8536,-5.8565,-5.8552,-5.8496,-5.8497,-5.8595,-5.8592,-5.8523,-5.8701,-5.8611,-5.8626,-5.8698,-5.8725,-5.8746,-5.8744,-5.8414,0,0,0,0,0,-5.8514,-5.8564,-5.8545,-5.8643,-5.8651,-5.8617,-5.8642,-5.8607,-5.8617,-5.8621,-5.8612,-5.8624,-5.8667,-5.8696,-5.8734,-5.8856,-5.8853,-5.8915,-5.8937,-5.8955,-5.8968,-5.9032,-5.9059,-5.8771,-5.8771,-5.8771,0,0,-5.8597,-5.8593,-5.8628,-5.8668,-5.8673,-5.8726,-5.8622,-5.8683,-5.8722,-5.863,-5.8712,-5.8707,-5.8717,-5.8823,-5.8869,-5.8823,-5.9048,-5.897,-5.8985,-5.8988,-5.9048,-5.9075,-5.9099,-5.8779,-5.8778,-5.8777,0,0,-5.8775,-5.8778,-5.8859,-5.8867,-5.8877,-5.8854,-5.8875,-5.8869,-5.8862,-5.8944,-5.8877,-5.8924,-5.8999,-5.9009,-5.9024,-5.921,-5.9156,-5.9225,-5.9337,-5.94,-5.9423,-5.9443,-5.9509,-5.9533,-5.9239,-5.9239,-5.9239,0,-5.8877,-5.8955,-5.8907,-5.8973,-5.8993,-5.8914,-5.8997,-5.9007,-5.9029,-5.9044,-5.8993,-5.9087,-5.9088,-5.9195,-5.9241,-5.9256,-5.9277,-5.9223,-5.9423,-5.9443,-5.9461,-5.9523,-5.9548,-5.9247,-5.9246,-5.9245,-5.9245,0,-5.9079,-5.9135,-5.92,-5.9223,-5.9251,-5.9325,-5.9289,-5.9323,-5.9287,-5.9271,-5.9356,-5.9356,-5.9393,-5.9416,-5.9381,-5.9519,-5.949,-5.9433,-5.9341,-5.9497,-5.9554,-5.9578,-5.9259,-5.9256,-5.9253,-5.9251,0,0,-5.9333,-5.9332,-5.9356,-5.9366,-5.9373,-5.9415,-5.9487,-5.9523,-5.9553,-5.9572,-5.9631,-5.9698,-5.9645,-5.9662,-5.9628,-5.9685,-5.9832,-5.962,-5.9619,-5.9658,-5.9984,-6.0026,-6.0054,-5.9797,-5.9802,-5.9805,-5.9983,0,-5.9506,-5.9627,-5.9588,-5.9711,-5.9762,-5.969,-5.9752,-5.9764,-5.9751,-5.9793,-5.9779,-5.9827,-5.9754,-5.9764,-5.9816,-5.9803,-5.9896,-5.979,-5.9851,-5.9853,-5.9848,-6.0084,-6.0128,-6.0296,-6.0005,-6.0009,-6.0011,0,-5.9723,-5.9752,-5.988,-5.988,-5.99,-5.9956,-5.9987,-6.0029,-6.0041,-6.0028,-6.0049,-6.0005,-6.0075,-5.9986,-6.0083,-6.0012,-6.0035,-6.0033,-6.0038,-6.004,-5.994,-6.0091,-6.0348,-6.0372,-6.0047,-6.0044,-6.0041,0,-5.9894,-5.9965,-6.005,-6.0062,-6.0064,-6.0106,-6.0109,-6.0116,-6.0141,-6.0169,-6.0185,-6.0221,-6.0241,-6.027,-6.0237,-6.0175,-6.0339,-6.0247,-6.033,-6.0331,-6.0365,-6.0363,-6.0628,-6.0384,-6.0384,-6.0383,-6.0383,0,-6.009,-6.0171,-6.0127,-6.018,-6.0269,-6.0225,-6.0315,-6.031,-6.0318,-6.0368,-6.0309,-6.0358,-6.0312,-6.0358,-6.0332,-6.0417,-6.0426,-6.0418,-6.0409,-6.0422,-6.0423,-6.0434,-6.0421,-6.039,-6.0389,-6.0387,-6.0386,0,-6.0294,-6.0268,-6.0357,-6.0353,-6.0354,-6.042,-6.0416,-6.0465,-6.045,-6.0515,-6.0528,-6.0504,-6.0554,-6.0525,-6.0576,-6.056,-6.0669,-6.0646,-6.0665,-6.0658,-6.0742,-6.0734,-6.1021,-6.1056,-6.0793,-6.0795,-6.0797,0,-6.0419,-6.048,-6.0483,-6.0513,-6.0521,-6.057,-6.0596,-6.0556,-6.0585,-6.0606,-6.0653,-6.0699,-6.0732,-6.0817,-6.0804,-6.0844,-6.082,-6.0918,-6.0825,-6.0836,-6.082,-6.0816,-6.0821,-6.0936,-6.0939,-6.0941,-6.0944,0,-6.0644,-6.0629,-6.0669,-6.0706,-6.0739,-6.0765,-6.0787,-6.0815,-6.0776,-6.0812,-6.0863,-6.089,-6.0944,-6.099,-6.1025,-6.1028,-6.098,-6.0974,-6.0995,-6.1006,-6.1014,-6.101,-6.0714,-6.0966,-6.0964,-6.0962,-6.0961,-6.096,-6.0811,-6.0862,-6.0873,-6.092,-6.0933,-6.0955,-6.1001,-6.0993,-6.1035,-6.1076,-6.105,-6.1111,-6.1124,-6.1165,-6.1175,-6.1223,-6.1183,-6.1214,-6.1221,-6.1229,-6.124,-6.1009,-6.1229,-6.1228,-6.1228,-6.1227,-6.1227,0,-6.1032,-6.1036,-6.108,-6.1113,-6.1151,-6.1104,-6.1127,-6.1161,-6.1215,-6.1231,-6.1267,-6.1327,-6.1372,-6.1365,-6.1406,-6.1445,-6.1425,-6.1457,-6.1453,-6.1454,-6.1273,-6.125,-6.1474,-6.1474,-6.1474,-6.1474,-6.1474,-6.1474,-6.1151,-6.1235,-6.1222,-6.1313,-6.1316,-6.1376,-6.1393,-6.1413,-6.1426,-6.1496,-6.1534,-6.1529,-6.1536,-6.1578,-6.1618,-6.1615,-6.1632,-6.1673,-6.1662,-6.1492,-6.1467,-6.1444,-6.1422,-6.1678,-6.1678,-6.1838,-6.184,-6.1841]},{"header":{"parameterUnit":"m.s-1","parameterCategory":1,"la1":30.2991,"la2":30.254,"lo1":-89.0895,"lo2":-89.0444,"dy":0.0017,"dx":0.0017,"nx":28,"ny":28,"refTime":"2024-12-25T09:00:00:Z","depth":0,"parameterNumber":3,"parameterNumberName":"V-component_of_WINDS"},"data":[0,0,0,0,0,0,0,0,0,0,0,0,0,0,0,0,0,0,0,0,0,0,0,0,0,0,0,0,0,0,0,0,0,0,0,0,0,0,0,0,0,0,0,0,0,0,0,0,0,0,0,0,0,0,0,0,0,0,0.545,0.545,0,0.5454,0.5454,0.5454,0.5422,0.5421,0.542,0.5419,0.5424,0.5425,0.5426,0,0,0,0,0,0,0,0,0,0,0,0,0,0.5421,0.5422,0.545,0.545,0.545,0.5454,0.5454,0.5454,0.5422,0.5421,0.542,0.5419,0.5424,0.5425,0.5426,0,0,0,0,0,0,0,0,0,0,0,0,0,0.543,0.5422,0.545,0.5435,0.5434,0.5454,0.5454,0.5454,0.5422,0.5421,0.5419,0.5418,0.5424,0.5425,0.5426,0.5462,0,0,0.5431,0.5431,0,0,0,0,0,0,0,0,0.543,0.5431,0.5437,0.5436,0.5435,0.5436,0.5445,0.5456,0.5422,0.5427,0.5419,0.5418,0.5429,0.543,0.5434,0.5462,0.5462,0.5431,0.5432,0.5432,0.5433,0,0,0,0,0,0,0,0.5429,0.5431,0.5452,0.5437,0.5436,0.5429,0.5429,0.5447,0.5435,0.5426,0.5424,0.5424,0.5428,0.5433,0.5434,0.5462,0.5431,0.5432,0.5433,0.5434,0.5524,0.5526,0,0,0,0,0,0,0.543,0.5431,0.5451,0.5452,0.5429,0.5431,0.5431,0.5437,0.5435,0.5434,0.5426,0.5423,0.5431,0.5432,0.5434,0.5478,0.5432,0.5434,0.5435,0.5523,0.5525,0.5526,0,0,0,0,0,0,0.5429,0.5432,0.5451,0.5441,0.5442,0.5433,0.544,0.5438,0.5442,0.5435,0.5433,0.5432,0.543,0.5432,0.5456,0.5477,0.5434,0.5436,0.5521,0.5523,0.5525,0.5564,0,0,0,0,0,0,0.5429,0.5432,0.5444,0.5441,0.5443,0.5472,0.5441,0.5439,0.5444,0.5441,0.544,0.5439,0.5429,0.5454,0.5457,0.5479,0.5437,0.5519,0.5522,0.5525,0.5561,0.5568,0.5573,0,0,0,0,0,0.5428,0.5455,0.5445,0.5448,0.5458,0.5473,0.5475,0.5462,0.5446,0.5459,0.5455,0.5439,0.5474,0.5457,0.546,0.5482,0.5517,0.5521,0.5524,0.5558,0.5566,0.5573,0,0,0,0,0,0,0.546,0.5454,0.5443,0.5469,0.5472,0.5468,0.5484,0.5471,0.5479,0.5475,0.5461,0.5461,0.5488,0.5487,0.5468,0.5519,0.5493,0.5498,0.5518,0.5525,0.5531,0.5532,0.5438,0,0,0,0,0,0.5471,0.5483,0.5477,0.5501,0.5503,0.5493,0.55,0.549,0.5493,0.5494,0.5492,0.5496,0.5508,0.5517,0.5527,0.5561,0.5562,0.5578,0.5584,0.5589,0.5594,0.5615,0.5623,0.5538,0.5538,0.5537,0,0,0.5492,0.549,0.5498,0.5507,0.5508,0.5523,0.5494,0.551,0.5522,0.5496,0.552,0.5519,0.5522,0.5552,0.5565,0.5553,0.5618,0.5594,0.5598,0.5599,0.5619,0.5627,0.5635,0.554,0.5539,0.5539,0,0,0.5539,0.5537,0.5558,0.5561,0.5563,0.5557,0.5563,0.5561,0.556,0.5583,0.5565,0.5579,0.56,0.5604,0.5609,0.5662,0.5648,0.5666,0.5698,0.5719,0.5725,0.5731,0.5753,0.576,0.567,0.567,0.567,0,0.5565,0.5585,0.5571,0.5589,0.5595,0.5573,0.5597,0.56,0.5606,0.5611,0.5596,0.5625,0.5625,0.5658,0.5671,0.5675,0.5682,0.5666,0.5725,0.5731,0.5737,0.5757,0.5765,0.5672,0.5672,0.5672,0.5671,0,0.5619,0.5634,0.5651,0.5658,0.5666,0.5686,0.5677,0.5687,0.5678,0.5674,0.57,0.57,0.5713,0.5719,0.571,0.5752,0.5744,0.5728,0.5702,0.5747,0.5766,0.5774,0.5675,0.5675,0.5674,0.5673,0,0,0.5685,0.5686,0.5693,0.5697,0.57,0.5712,0.5732,0.5744,0.5754,0.576,0.5779,0.5799,0.5785,0.5791,0.5782,0.58,0.5845,0.5782,0.5782,0.5796,0.5895,0.5908,0.5917,0.5836,0.5837,0.5838,0.5895,0,0.5732,0.5767,0.5756,0.5792,0.5807,0.5789,0.5807,0.5812,0.581,0.5824,0.5822,0.5837,0.5816,0.582,0.5837,0.5836,0.5865,0.5832,0.5856,0.5857,0.5857,0.5927,0.594,0.5994,0.5902,0.5903,0.5904,0,0.5791,0.58,0.5838,0.5841,0.5847,0.5864,0.5876,0.5889,0.5895,0.5893,0.5901,0.589,0.5913,0.5887,0.592,0.5897,0.5907,0.5908,0.591,0.5913,0.5884,0.5934,0.601,0.6019,0.5915,0.5914,0.5914,0,0.5839,0.586,0.5886,0.589,0.5894,0.5907,0.5909,0.5914,0.5923,0.5934,0.5941,0.5954,0.5962,0.5974,0.5967,0.5948,0.6003,0.5975,0.6003,0.6004,0.6016,0.6016,0.6098,0.6019,0.6019,0.6019,0.6019,0,0.5893,0.5918,0.5908,0.5924,0.5952,0.5941,0.5969,0.597,0.5975,0.5993,0.5977,0.5994,0.5984,0.6001,0.5996,0.6026,0.6029,0.603,0.6029,0.6032,0.6032,0.6039,0.6036,0.6021,0.6021,0.602,0.602,0,0.5951,0.5945,0.5973,0.5975,0.5976,0.5997,0.5999,0.6016,0.6013,0.6036,0.6041,0.6038,0.6058,0.6052,0.6073,0.607,0.6109,0.6102,0.6107,0.6106,0.6135,0.6134,0.6226,0.6239,0.615,0.6151,0.6152,0,0.5987,0.6005,0.601,0.6021,0.6025,0.6041,0.6051,0.6042,0.6053,0.6064,0.608,0.6098,0.6112,0.6145,0.6146,0.6163,0.6157,0.6188,0.616,0.6164,0.6161,0.6161,0.6164,0.6195,0.6196,0.6196,0.6197,0,0.6052,0.6049,0.6063,0.6078,0.609,0.6101,0.611,0.612,0.6112,0.6126,0.6146,0.6158,0.618,0.62,0.6216,0.622,0.6209,0.6206,0.6214,0.6219,0.6222,0.6224,0.6125,0.6204,0.6203,0.6203,0.6203,0.6202,0.6102,0.6119,0.6126,0.6143,0.615,0.616,0.6176,0.6177,0.6193,0.6211,0.6205,0.6229,0.6238,0.6259,0.6265,0.6285,0.6274,0.6284,0.6287,0.6291,0.6296,0.6218,0.6288,0.6288,0.6288,0.6287,0.6287,0,0.6169,0.6173,0.6189,0.6204,0.6218,0.6206,0.6216,0.623,0.6251,0.626,0.6276,0.6301,0.632,0.6323,0.6343,0.6358,0.6354,0.6364,0.6364,0.6366,0.6304,0.6296,0.6368,0.6368,0.6368,0.6367,0.6367,0.6367,0.6205,0.6234,0.6233,0.6267,0.6271,0.6294,0.6302,0.6312,0.632,0.6349,0.6365,0.6367,0.6375,0.6395,0.6414,0.6414,0.6423,0.6436,0.6435,0.6377,0.6369,0.6362,0.6355,0.6437,0.6438,0.6496,0.6496,0.6497]}]]